Home   Weather   Barcelona   Past weeks

Flag for Spain Past Weather in Barcelona, Barcelona, Spain — Yesterday and Last 2 Weeks

Now
52 °F

Partly sunny.


Feels Like: 51 °F
Forecast: 43 / 59 °F
Wind: 5 mph from Southwest

Location: Barcelona Airport

Current Time: Apr 27, 2017 at 7:24:24 pm

Latest Report: Apr 27, 2017 at 6:30 pm


Visibility: N/A

Pressure: 29.98 "Hg

Humidity: 72%

Dew Point: 43 °F

Location of BarcelonaLocation

Past Weather in Barcelona — Graph

°F

Barcelona Temperature Yesterday

Maximum temperature yesterday: 63 °F (at 12:08 am)
Minimum temperature yesterday: 55 °F (at 3:00 pm)
Average temperature yesterday: 58 °F

High & Low Weather Summary for the Past Weeks

 TemperatureHumidityPressure
High68 °F (Apr 14, 4:00 pm)94% (Apr 13, 9:00 pm)30.42 "Hg (Apr 13, 9:00 pm)
Low45 °F (Apr 21, 5:30 am)27% (Apr 20, 1:30 pm)29.68 "Hg (Apr 26, 4:00 am)
Average58 °F72%30.07 "Hg
* Reported Apr 12 6:00 pm — Apr 27 6:30 pm, Barcelona, Weather by CustomWeather, © 2017

Note: Actual official high and low records may vary slightly from our data, if they occured in-between our weather recording intervals... More about our weather records

Advertising

Barcelona Weather History for the Previous 24 Hours

Scroll right to see more
 ConditionsComfort  
Time TempWeatherWind HumidityBarometerVisibility
6:30 pm
Thu, Apr 27
52 °FPartly sunny.5 mph72%29.98 "HgN/A
6:00 pm50 °FPartly sunny.3 mph71%29.98 "HgN/A
5:30 pm50 °FBroken clouds.1 mph71%29.98 "HgN/A
5:00 pm48 °FBroken clouds.2 mph82%29.98 "HgN/A
4:30 pm48 °FLight rain. Broken clouds.3 mph82%29.98 "HgN/A
4:00 pm48 °FLight rain. Broken clouds.2 mph76%29.98 "HgN/A
3:30 pm48 °FLight rain. Partly sunny.2 mph76%29.98 "HgN/A
2:30 pm46 °FBroken clouds.6 mph82%29.98 "HgN/A
2:00 pm46 °FBroken clouds.7 mph82%29.98 "HgN/A
1:30 pm46 °FLight rain. Partly sunny.6 mph82%29.98 "HgN/A
12:30 pm46 °FLight rain. Partly sunny.10 mph82%29.98 "HgN/A
12:00 pm46 °FLight rain. Partly sunny.12 mph87%29.95 "HgN/A
11:30 am46 °FRain. Broken clouds.12 mph87%29.95 "HgN/A
11:00 am46 °FRain. Broken clouds.13 mph82%29.95 "HgN/A
10:30 am46 °FRain. Broken clouds.13 mph87%29.95 "HgN/A
10:00 am46 °FRain. Broken clouds.12 mph87%29.95 "HgN/A
9:30 am46 °FRain. Broken clouds.9 mph93%29.92 "HgN/A
9:00 am46 °FRain. Partly sunny.10 mph87%29.92 "HgN/A
8:30 am46 °FRain. Partly sunny.8 mph87%29.92 "HgN/A
8:00 am46 °FLight rain. Partly sunny.7 mph87%29.89 "HgN/A
7:30 am46 °FRain. Partly sunny.8 mph93%29.89 "HgN/A
7:00 am46 °FLight rain. Partly sunny.10 mph87%29.89 "HgN/A
6:30 am46 °FLight rain. Passing clouds.9 mph87%29.89 "HgN/A
5:30 am48 °FRain. Passing clouds.12 mph87%29.89 "HgN/A
5:00 am48 °FRain. Passing clouds.10 mph94%29.89 "HgN/A
4:30 am50 °FRain. Passing clouds.10 mph88%29.89 "HgN/A
3:30 am52 °FLight rain. Passing clouds.9 mph94%29.89 "HgN/A
3:00 am52 °FLight rain. Passing clouds.9 mph94%29.89 "HgN/A
2:30 am52 °FPassing clouds.6 mph94%29.89 "HgN/A
2:00 am54 °FPassing clouds.6 mph88%29.89 "HgN/A
1:30 am54 °FLight rain. Passing clouds.8 mph88%29.89 "HgN/A
12:30 am54 °FPassing clouds.6 mph94%29.89 "HgN/A
11:30 pm
Wed, Apr 26
55 °FPassing clouds.6 mph82%29.89 "HgN/A
11:00 pm55 °FPassing clouds.2 mph77%29.89 "HgN/A
10:30 pm55 °FPassing clouds.1 mph77%29.89 "HgN/A
10:00 pm55 °FPassing clouds.6 mph72%29.86 "HgN/A
9:30 pm55 °FPassing clouds.8 mph77%29.83 "HgN/A
8:30 pm55 °FPartly sunny.9 mph77%29.83 "HgN/A
8:00 pm55 °FPartly sunny.10 mph82%29.83 "HgN/A
7:45 pm55 °FDrizzle. Broken clouds.9 mph82%29.83 "HgN/A
7:30 pm55 °FBroken clouds.9 mph88%29.83 "HgN/A
7:00 pm57 °FBroken clouds.13 mph82%29.83 "HgN/A
Weather by CustomWeather, © 2017

See weather overviewHow to use our weather pages